User: anonymous   Login
Location: Newark
(44.2003°N, 3.2583°E)
Time: 13:22:56
(UTC+00:00)
Language:

FALCON 9 DEB - Orbit

View from above orbital plane
View from above orbital plane
View from above satellite
View from above satellite

Ground track
Ground track

The orbit data is extracted from the following two-line orbital elements,

1 46388U 20062BR  20272.97348170 +.05472627 +12200-4 +44070-3 0  9991
2 46388 052.9872 297.8870 0016863 135.3994 224.8411 16.38586186004742
Epoch (UTC): 28 September 2020 23:21:48
Eccentricity: 0.0016863
inclination: 52.9872°
perigee height: 158 km
apogee height: 180 km
right ascension of ascending node: 297.8870°
argument of perigee: 135.3994°
revolutions per day: 16.38586186
mean anomaly at epoch: 224.8411°
orbit number at epoch: 474

The dashed part of the orbit path shows where the satellite is in the earth's shadow,  

DLR